User: anonymous   Login
Location: Killarney Provincial Park Observatory
(46.0124°N, 81.4000°W)
Time: 16:54:07
(UTC-04:00)
Language:

Iridium 22 - Orbit

View from above orbital plane
View from above orbital plane
View from above satellite
View from above satellite

Ground track
Ground track

The orbit data is extracted from the following two-line orbital elements,

1 24907U 97043E   17084.60894907 -.00000025 +00000-0 -16096-4 0  9993
2 24907 086.3928 291.0335 0001944 084.0976 276.0441 14.34216386025868
Epoch (UTC): 25 March 2017 14:36:53
Eccentricity: 0.0001944
inclination: 86.3928°
perigee height: 776 km
apogee height: 779 km
right ascension of ascending node: 291.0335°
argument of perigee: 84.0976°
revolutions per day: 14.34216386
mean anomaly at epoch: 276.0441°
orbit number at epoch: 2586

The dashed part of the orbit path shows where the satellite is in the earth's shadow,  

DLR